Wind_Speed
16 16 16 16 16 16 16 17 17 18 18 18 18 19 20 21 21 22 23 23 24 24 25 26 26 27 28 29 30 31 32 33 33 34 35 35 36 37
18 18 17 17 17 18 18 18 19 20 20 20 20 21 22 23 23 24 24 25 26 27 27 28 29 30 30 32 32 33 34 35 36 37 38 39 40 41
19 19 19 19 19 20 20 20 20 21 21 21 22 23 23 24 25 26 27 27 28 29 29 30 31 32 33 34 35 36 37 39 40 40 41 42 43 44
19 19 20 20 20 21 22 22 22 23 23 23 24 25 25 26 27 28 29 30 30 31 32 33 33 34 35 37 38 39 40 41 42 43 44 46 46 47
21 21 21 21 22 23 23 23 23 24 25 25 26 27 27 28 29 29 30 31 33 33 34 35 35 36 38 38 39 41 42 43 44 46 47 48 49 51
22 22 23 23 23 25 25 24 25 26 27 27 28 29 30 30 30 31 32 33 33 34 36 37 37 39 40 41 42 43 44 45 47 48 50 51 52 54
23 23 24 24 24 25 25 26 26 27 28 29 29 30 30 31 31 32 33 34 35 36 38 38 39 41 42 44 45 46 47 48 50 51 53 54 55 57
21 22 23 24 24 24 25 26 27 27 28 28 29 30 31 32 32 33 33 35 36 38 40 41 42 43 45 47 48 49 50 51 52 53 54 55 56 57
21 22 23 24 25 26 26 26 26 27 27 28 29 30 31 32 33 34 35 37 39 40 41 42 44 45 47 48 49 50 52 52 53 53 54 55 55 56
23 23 23 24 25 25 26 27 27 27 28 29 29 30 31 33 34 36 37 38 39 41 43 44 45 47 48 49 50 51 52 52 53 54 54 54 54 55
24 24 23 24 25 25 26 26 27 27 28 29 30 31 32 34 35 36 38 40 42 43 44 45 45 47 48 49 50 50 50 51 51 52 52 52 51 51
24 24 24 24 25 25 25 27 27 28 28 30 32 33 34 36 37 37 39 41 42 44 45 45 46 47 47 48 48 48 48 49 49 50 49 49 49 48
24 24 24 25 25 25 26 27 28 28 29 31 33 35 36 36 37 38 39 40 42 43 44 44 44 44 45 45 45 46 47 47 47 47 47 47 46 46
23 24 24 25 26 27 28 28 29 30 31 32 34 36 36 37 37 38 39 40 41 42 42 42 42 43 43 43 44 44 45 45 45 44 44 44 44 44
24 25 26 27 28 28 29 29 30 30 32 33 35 36 36 36 36 37 38 39 40 39 40 41 41 41 41 41 42 42 42 43 43 42 41 41 40 40
25 26 27 28 28 29 30 30 30 31 32 33 34 34 34 35 36 37 37 37 38 37 38 38 38 39 39 39 40 40 40 40 39 39 38 38 37 37
26 26 27 28 28 29 29 30 31 32 32 33 33 33 34 35 35 35 36 36 36 36 36 36 37 37 38 38 38 38 38 37 37 36 36 35 35 35
26 26 27 27 28 28 28 29 30 31 32 32 32 32 33 33 33 33 33 33 34 34 35 35 35 35 36 36 37 36 36 35 34 34 34 34 33 33
26 26 27 27 28 28 29 30 30 31 31 32 32 32 32 32 32 32 32 32 33 33 33 33 33 34 34 34 34 34 34 33 33 33 32 32 32 31
26 26 27 28 28 29 30 30 30 30 30 32 32 32 32 32 32 32 32 32 31 32 32 32 32 32 32 32 32 32 32 32 31 31 31 31 31 31
26 27 28 29 30 30 30 29 29 30 30 31 32 31 31 32 32 31 31 31 31 31 31 31 30 30 31 31 30 30 30 30 30 31 31 30 30 30
27 28 28 29 29 28 28 29 29 30 30 31 31 31 31 32 31 30 30 30 29 29 30 29 29 29 29 29 29 29 29 29 30 31 32 32 32 31
28 28 28 28 28 28 29 30 31 31 31 31 31 32 31 30 29 29 29 28 28 28 28 28 28 28 28 28 28 28 29 29 30 30 31 31 32 32
Wind_Direction
252 253 253 256 257 258 260 262 264 264 266 268 271 274 276 277 277 279 281 282 284 284 282 282 282 283 283 283 283 282 282 282 282 281 281 280 279 279
255 255 255 256 257 259 261 264 265 266 267 270 274 276 278 279 278 279 280 281 283 283 283 283 283 283 284 285 284 283 283 283 283 283 281 280 279 279
255 257 258 258 259 262 263 266 267 269 270 273 276 278 279 278 278 279 281 281 282 282 283 284 285 285 284 285 285 284 283 283 282 282 282 282 281 280
257 259 260 259 260 264 265 266 269 272 275 275 277 280 281 281 280 282 282 283 283 284 285 286 286 285 285 285 285 285 284 283 283 283 283 282 281 281
258 259 260 262 264 267 268 268 269 273 276 276 280 281 283 283 282 282 283 284 284 286 286 286 285 285 287 287 287 287 287 286 285 285 284 283 283 282
260 260 262 265 267 268 270 271 272 275 277 279 281 280 282 284 284 284 284 285 286 287 288 287 286 287 287 288 288 288 288 287 287 286 285 284 284 283
265 264 264 265 268 270 271 273 275 276 277 279 281 281 282 284 285 286 286 286 287 289 289 288 288 288 289 289 289 289 289 288 288 287 286 286 285 285
266 265 266 268 269 271 274 275 276 278 278 279 281 281 282 284 286 287 287 287 289 290 290 291 291 291 291 291 290 290 290 290 290 289 289 288 288 287
267 268 268 269 272 273 274 276 279 280 280 281 282 282 283 283 285 287 288 290 290 291 291 291 291 291 291 291 291 292 292 292 292 291 291 291 291 291
267 270 270 271 274 275 276 279 280 281 283 283 283 284 284 285 286 288 289 289 290 291 292 292 292 292 292 292 293 293 293 293 293 293 294 293 293 293
271 272 272 271 273 276 278 279 280 282 283 284 285 286 287 287 289 290 290 291 292 293 293 294 294 293 294 294 294 295 295 295 296 296 296 296 296 295
272 273 274 275 278 279 281 282 284 284 285 287 288 288 289 289 289 290 291 292 293 294 295 295 295 295 296 297 297 298 298 298 298 298 299 299 298 297
273 273 274 275 277 278 281 284 285 286 287 289 290 291 290 290 289 290 292 293 294 295 295 295 296 297 298 299 300 301 301 301 301 301 301 301 301 300
275 274 275 276 277 279 281 284 286 287 289 290 291 291 291 291 291 292 294 295 296 296 296 297 298 299 300 301 301 302 302 303 303 303 303 304 304 304
278 278 278 279 280 281 283 285 286 289 290 291 293 293 293 293 293 295 296 297 297 297 298 299 300 301 301 303 304 305 305 306 306 306 306 306 306 306
279 279 279 281 281 283 284 286 288 290 292 293 294 293 294 295 296 297 298 299 299 300 301 301 301 303 305 306 307 309 309 309 309 309 309 308 308 309
279 279 280 281 283 285 286 287 289 290 291 293 294 294 295 296 297 298 301 302 301 302 302 303 304 306 307 309 310 312 312 312 313 312 312 312 312 312
280 281 281 284 286 286 287 289 290 289 291 293 294 295 296 297 299 300 301 302 303 304 305 306 307 309 310 311 312 313 314 314 314 314 314 315 315 314
281 282 283 284 286 286 287 289 290 292 294 295 296 296 297 298 299 300 301 303 304 305 306 308 309 310 311 313 314 314 315 316 317 317 318 318 318 317
282 283 284 285 285 286 289 290 291 294 296 297 297 297 297 298 299 300 301 303 304 306 307 309 310 311 312 314 315 315 316 317 318 319 320 322 322 322
282 284 285 286 286 286 289 291 292 294 295 296 297 298 298 298 299 299 301 302 304 306 308 309 311 312 313 315 316 317 318 319 320 321 321 322 323 324
283 285 286 287 287 286 288 291 292 293 294 296 297 298 299 299 299 299 301 303 305 307 308 310 312 313 315 316 317 318 319 320 323 324 324 324 325 325
284 285 286 286 285 287 289 290 291 292 294 295 296 297 298 299 299 300 302 303 305 307 309 310 312 314 316 317 318 319 320 321 323 325 325 326 327 328
Height
5885 5886 5886 5887 5887 5887 5888 5888 5888 5888 5888 5887 5886 5886 5884 5883 5882 5881 5879 5878 5876 5875 5873 5872 5870 5868 5866 5865 5863 5861 5859 5857 5855 5853 5851 5849 5847 5845
5881 5882 5882 5883 5883 5883 5883 5883 5883 5883 5882 5882 5881 5880 5879 5877 5876 5874 5873 5871 5870 5868 5866 5864 5863 5861 5859 5857 5854 5852 5850 5848 5846 5843 5841 5839 5836 5834
5876 5877 5877 5878 5878 5878 5878 5878 5878 5877 5876 5876 5874 5873 5872 5871 5869 5868 5866 5864 5863 5861 5859 5857 5855 5852 5850 5848 5845 5843 5840 5838 5835 5833 5830 5828 5825 5822
5871 5871 5871 5872 5872 5872 5872 5872 5872 5871 5870 5869 5868 5866 5865 5864 5862 5860 5858 5857 5855 5852 5850 5848 5846 5843 5841 5838 5835 5832 5829 5826 5824 5821 5818 5815 5812 5809
5866 5866 5866 5866 5866 5866 5866 5866 5865 5864 5863 5862 5861 5859 5858 5857 5855 5853 5851 5849 5846 5844 5842 5839 5836 5833 5830 5827 5824 5821 5818 5815 5811 5808 5804 5801 5798 5794
5860 5860 5860 5860 5860 5860 5859 5859 5858 5857 5856 5855 5854 5852 5850 5849 5847 5845 5843 5840 5838 5835 5832 5830 5827 5823 5820 5817 5813 5810 5806 5802 5798 5794 5790 5786 5783 5779
5854 5854 5854 5854 5853 5853 5852 5852 5851 5850 5849 5847 5845 5844 5842 5840 5839 5836 5834 5831 5829 5826 5823 5820 5816 5813 5809 5805 5801 5797 5793 5789 5785 5780 5776 5771 5767 5762
5847 5847 5847 5847 5846 5846 5845 5844 5843 5842 5841 5839 5837 5836 5834 5832 5830 5827 5825 5822 5819 5816 5812 5809 5805 5801 5797 5793 5789 5784 5779 5775 5770 5765 5760 5755 5750 5745
5841 5841 5840 5840 5839 5839 5838 5837 5835 5834 5833 5831 5829 5827 5825 5823 5821 5818 5816 5812 5809 5805 5802 5798 5793 5789 5785 5780 5776 5771 5766 5761 5755 5750 5745 5739 5734 5728
5834 5834 5834 5833 5832 5832 5830 5829 5828 5827 5825 5823 5821 5819 5816 5814 5811 5809 5806 5802 5799 5795 5790 5786 5781 5777 5772 5767 5762 5757 5752 5746 5741 5735 5729 5724 5718 5713
5827 5827 5826 5826 5825 5824 5823 5822 5821 5819 5817 5815 5812 5810 5807 5805 5802 5798 5795 5791 5788 5784 5779 5775 5769 5764 5759 5754 5749 5743 5738 5732 5726 5721 5715 5709 5703 5698
5821 5820 5820 5819 5818 5817 5816 5814 5813 5811 5809 5807 5804 5801 5798 5795 5792 5788 5785 5781 5777 5772 5767 5763 5757 5752 5747 5741 5736 5731 5725 5719 5713 5707 5701 5696 5690 5684
5814 5813 5812 5811 5810 5809 5808 5806 5804 5802 5800 5798 5795 5792 5788 5785 5781 5778 5774 5770 5766 5761 5756 5751 5746 5741 5735 5730 5724 5719 5713 5707 5701 5695 5689 5683 5677 5671
5807 5806 5805 5804 5803 5801 5800 5798 5796 5794 5791 5788 5785 5782 5778 5775 5771 5767 5764 5759 5755 5750 5745 5740 5735 5730 5725 5719 5713 5708 5702 5696 5690 5684 5677 5671 5665 5659
5799 5798 5797 5796 5795 5793 5791 5789 5787 5784 5782 5779 5775 5772 5768 5764 5761 5757 5753 5749 5744 5739 5735 5730 5724 5719 5714 5709 5703 5697 5691 5685 5679 5673 5667 5661 5655 5649
5792 5791 5790 5788 5787 5784 5782 5780 5778 5775 5772 5769 5765 5762 5758 5755 5751 5747 5743 5738 5734 5729 5724 5720 5714 5709 5704 5699 5693 5687 5682 5676 5670 5664 5658 5652 5646 5640
5784 5783 5781 5780 5778 5776 5773 5771 5769 5766 5763 5760 5756 5753 5749 5745 5741 5737 5733 5729 5725 5720 5715 5711 5706 5700 5695 5690 5684 5679 5673 5667 5661 5655 5650 5644 5638 5632
5776 5774 5773 5771 5769 5767 5765 5762 5760 5757 5754 5750 5747 5743 5740 5736 5732 5728 5724 5720 5716 5712 5707 5702 5697 5692 5687 5681 5677 5671 5665 5660 5654 5648 5642 5636 5631 5625
5768 5766 5764 5762 5760 5758 5756 5754 5751 5748 5745 5741 5738 5734 5731 5727 5724 5720 5716 5712 5708 5703 5699 5694 5689 5684 5679 5674 5669 5663 5658 5652 5647 5641 5635 5629 5624 5618
5759 5758 5756 5754 5752 5750 5747 5745 5742 5739 5736 5733 5729 5726 5722 5719 5715 5711 5708 5704 5700 5695 5691 5686 5682 5677 5672 5667 5662 5656 5651 5645 5640 5635 5629 5623 5617 5611
5751 5749 5747 5745 5743 5741 5738 5736 5733 5730 5727 5724 5721 5717 5714 5710 5707 5703 5700 5696 5692 5688 5683 5679 5674 5670 5665 5660 5655 5650 5645 5639 5634 5628 5623 5617 5612 5606
5742 5740 5738 5736 5734 5732 5729 5727 5724 5721 5718 5715 5712 5709 5705 5702 5698 5695 5691 5688 5684 5680 5676 5671 5667 5663 5658 5654 5649 5644 5639 5634 5628 5622 5616 5610 5605 5599
5733 5731 5729 5727 5725 5723 5721 5718 5716 5713 5710 5707 5704 5700 5697 5694 5690 5687 5683 5680 5676 5672 5668 5664 5660 5656 5652 5647 5643 5638 5633 5628 5623 5618 5612 5605 5599 5593